Retour au catalogue

ORBCOMM FM 113

ActifCommunicationsLEO
NORAD 41185·PAYLOAD·🇺🇸 United States

Lancé Dec 22, 2015 depuis Cape Canaveral Space Force Station

Loading…

Prochains Passages (prochaines 24 heures)

TLE

FraisSource: Space-Track

Époque: Sep 14, 2026, 05:14 UTC

1 41185U 15081G   26257.21852761  .00000301  00000-0  99835-4 0  9990
2 41185  46.9996 209.6345 0002361 270.0502  90.0113 14.58931013571935

Suivez ORBCOMM FM 113 en temps réel avec AllMySat

Download on the App Store